User: anonymous   Login
Location: ?????
(30.2541°N, 31.0910°E)
Time: 00:38:08
(UTC+00:00)
Language:

Envisat - Orbit

View from above orbital plane
View from above orbital plane
View from above satellite
View from above satellite

Ground track
Ground track

The orbit data is extracted from the following two-line orbital elements,

1 27386U 02009A   23031.52531824  .00000248  00000-0  95139-4 0  9991
2 27386  98.2129   7.2830 0001198  88.3397  22.1122 14.38232273 96310
Epoch (UTC): 31 January 2023 12:36:27
Eccentricity: 0.0001198
inclination: 98.2129°
perigee height: 763 km
apogee height: 765 km
right ascension of ascending node: 7.2830°
argument of perigee: 88.3397°
revolutions per day: 14.38232273
mean anomaly at epoch: 22.1122°
orbit number at epoch: 9631

The dashed part of the orbit path shows where the satellite is in the earth's shadow,  

DLR